Regional Weather Roundup
Issued by NWS Sterling, VA

Home | Current Version | Previous Version | Graphics & Text | Print | Product List | Glossary On
Versions: 1 2 3 4 5 6 7 8 9 10 11 12 13 14 15 16 17 18 19 20 21 22 23 24 25 26 27 28 29 30 31 32 33 34 35 36 37 38 39 40 41 42 43 44 45 46 47 48 49 50
000
ASUS41 KLWX 201110
RWRLWX

REGIONAL WEATHER ROUNDUP
NATIONAL WEATHER SERVICE BALTIMORE MD/WASHINGTON DC
700 AM EDT SAT SEP 20 2014

Note: "FAIR" indicates few or no clouds below 12,000 feet
with no significant weather and/or obstructions to visibility.
 TC=TEMPERATURE CELSIUS

 * =Non NWS site. Station does not report precipitation (e.g. rain,
    snow, etc.), thunder, or fog.

DCZ001-MDZ009-015-VAZ040>042-051-053>054-201200-
WASHINGTON METRO

CITY           SKY/WX    TMP DP  RH WIND       PRES   REMARKS
WASHINGTON NAT PTCLDY    65  59  81 CALM      30.26S
DULLES         PTCLDY    55  55 100 CALM      30.26S
ANDREWS AFB    CLEAR     59  59 100 NW3       30.26S FOG
QUANTICO       CLEAR     62  59  90 NW8       30.27R
COLLEGE PARK*    N/A     59  59 100 CALM      30.26S
LEESBURG*      CLOUDY    63  63 100 SW3       30.27S
MANASSAS*      CLOUDY    57  57 100 CALM      30.26F
GAITHERSBURG*  MOCLDY    59  57  94 SE3       30.30S

$$

MDZ006>007-011-014-201200-
BALTIMORE METRO

CITY           SKY/WX    TMP DP  RH WIND       PRES   REMARKS
BWI AIRPORT    PTCLDY    61  58  90 CALM      30.26S FOG
MD SCIENCE CTR   N/A     63  59  87 MISG      30.27S
ANNAPOLIS      PTCLDY    68  62  81 E7        30.26R
FORT MEADE*    PTCLDY    55  54  94 CALM      30.29S

$$

MDZ012-015-019>023-201200-
MARYLAND EASTERN SHORE

CITY           SKY/WX    TMP DP  RH WIND       PRES   REMARKS
OCEAN CITY     CLOUDY    71  62  73 SE12G20   30.24S
SALISBURY      PTCLDY    58  55  90 N3        30.25S FOG
BAY BRIDGE AP*   N/A     61  59  94 SE3       30.26S
CAMBRIDGE*     CLEAR     57  54  88 CALM      30.26R
EASTON*        PTCLDY    59  59 100 CALM      30.30S

$$

MDZ017>025-201200-
SOUTHERN MARYLAND

CITY           SKY/WX    TMP DP  RH WIND       PRES   REMARKS
PATUXENT RIVER PTCLDY    62  59  90 NE5       30.25R
ST INIGOES     CLEAR     60  56  86 N3        30.25R
LEONARDTOWN*   CLEAR     57  55  94 CALM      30.27S

$$

MDZ003>005-201200-
NORTH CENTRAL MARYLAND

CITY           SKY/WX    TMP DP  RH WIND       PRES   REMARKS
FREDERICK*     CLOUDY    61  59  94 CALM      30.28S
HAGERSTOWN APT PTCLDY    62  59  90 S6        30.25R
WESTMINSTER*   FOG       59  57  94 SE3       30.27R VSB 1

$$

MDZ501>502-201200-
WESTERN MARYLAND

CITY           SKY/WX    TMP DP  RH WIND       PRES   REMARKS
OAKLAND*       CLEAR     54 N/A N/A S9        30.23S
CUMBERLAND*    MOCLDY    61  55  82 CALM      30.26S

$$

VAZ025>031-201200-
SHENANDOAH VALLEY

CITY           SKY/WX    TMP DP  RH WIND       PRES   REMARKS
WINCHESTER*    CLEAR     57  54  88 CALM      30.25S
STAUNTON*      CLEAR     55  52  89 CALM      30.28S FOG

$$

WVZ021-048>050-054>055-201200-
EASTERN WEST VIRGINIA PANHANDLE

CITY           SKY/WX    TMP DP  RH WIND       PRES   REMARKS
MARTINSBURG    CLEAR     61  57  87 SE5       30.25S
PETERSBURG*    CLOUDY    59  57  93 E3        30.23S

$$

VAZ036>039-050-201200-
CENTRAL FOOTHILLS

CITY           SKY/WX    TMP DP  RH WIND       PRES   REMARKS
CHARLOTTESVILL FOG       58  57  97 CALM      30.26S VSB 1/2
ORANGE*        FOG       54  54 100 CALM      30.28S VSB 1/4

$$

VAZ055>057-201200-
NORTH AND CENTRAL PIEDMONT

CITY           SKY/WX    TMP DP  RH WIND       PRES   REMARKS
FREDERICKSBRG* PTCLDY    59  59 100 CALM      30.25S
STAFFORD*      PTCLDY    57  57 100 NW5       30.30R FOG

$$

NCZ024-NYZ072-PAZ021-071-VAZ022-071-201200-
OTHER REGIONAL OBSERVATIONS

CITY           SKY/WX    TMP DP  RH WIND       PRES   REMARKS
NEW YORK CITY  PTCLDY    60  52  74 CALM      30.34S
PHILADELPHIA   MOCLDY    58  54  86 E6        30.29F
PITTSBURGH     MOCLDY    58  54  86 SE3       30.13S
ROANOKE        MOCLDY    60  57  89 CALM      30.28S
RICHMOND       PTCLDY    58  56  93 N7        30.25R
RALEIGH        PTCLDY    59  56  89 CALM      30.22R

$$

ANZ530>537-201200-
MARINE OBSERVATIONS

STATION/POSITION TIME  TEMP    WIND        PRES
                       AIR SEA DIR/SP/G
                 (UTC) (F)     (DEG/KT/KT) (MB)
THOMAS PT LIGHT  1100   67 73  130/ 10/ 11 1025.4F
BALT KEY BRIDGE  1100   63     350/  6/  7 1024.7R
COVE POINT       1100   66      90/  6/  8 1024.3S
LEWISETTA        1100   66 73  270/  2/  3 1023.7R
SOLOMONS ISLAND  1100      75                N/A
PINEY POINT      1100           50/  4/  5   N/A

$$




USA.gov is the U.S. government's official web portal to all federal, state and local government web resources and services.